GW5361 Weather Reports


Display with metric or nautical units.
time (UTC)temp
F
wind
direction
speed
MPH
gust
MPH
rain 1hr
in
rain 24hr
in
rain mn
in
humidity
%
barometer
mb
20260504221514 56 19 0.0 4.0 0.00 0.00 0.00 38 1012.7
20260504221008 56 325 0.0 9.0 0.00 0.00 0.00 40 1012.8
20260504220508 56 134 1.0 9.0 0.00 0.00 0.00 40 1012.8
20260504220020 56 258 1.0 7.0 0.00 0.00 0.00 41 1012.8
20260504215509 56 336 2.0 7.0 0.00 0.00 0.00 40 1012.9
20260504215009 56 145 2.0 7.0 0.00 0.00 0.00 42 1012.9
20260504214522 56 186 1.0 4.0 0.00 0.00 0.00 41 1012.9
20260504214004 56 352 0.0 4.0 0.00 0.00 0.00 41 1013.0
20260504213505 55 220 1.0 3.0 0.00 0.00 0.00 43 1012.9
20260504213012 56 263 1.0 5.0 0.00 0.00 0.00 42 1013.0
20260504212506 56 76 1.0 5.0 0.00 0.00 0.00 42 1013.0
20260504212005 56 211 1.0 5.0 0.00 0.00 0.00 41 1013.0
20260504211515 55 162 2.0 6.0 0.00 0.00 0.00 40 1013.0
20260504211004 56 171 1.0 6.0 0.00 0.00 0.00 40 1013.0
20260504210504 56 42 1.0 7.0 0.00 0.00 0.00 42 1013.0
20260504210020 55 143 3.0 7.0 0.00 0.00 0.00 43 1013.1
20260504205507 56 51 1.0 7.0 0.00 0.00 0.00 42 1013.0
20260504205012 56 106 1.0 4.0 0.00 0.00 0.00 41 1013.1
20260504204521 55 315 1.0 4.0 0.00 0.00 0.00 42 1013.1
20260504204011 55 211 0.0 5.0 0.00 0.00 0.00 42 1013.1
20260504203513 55 200 2.0 5.0 0.00 0.00 0.00 43 1013.1
20260504203031 55 259 1.0 7.0 0.00 0.00 0.00 44 1013.2
20260504202503 54 195 3.0 7.0 0.00 0.00 0.00 44 1013.2
20260504202003 55 178 0.0 6.0 0.00 0.00 0.00 44 1013.2
20260504201512 55 322 1.0 6.0 0.00 0.00 0.00 46 1013.3
20260504201005 54 194 2.0 6.0 0.00 0.00 0.00 43 1013.2
20260504200509 55 167 2.0 6.0 0.00 0.00 0.00 45 1013.2
20260504200018 55 171 2.0 6.0 0.00 0.00 0.00 42 1013.2
20260504195506 55 227 2.0 5.0 0.00 0.00 0.00 44 1013.2
20260504195007 55 321 1.0 4.0 0.00 0.00 0.00 42 1013.2
20260504194536 56 53 2.0 4.0 0.00 0.00 0.00 43 1013.2
20260504194008 55 78 0.0 5.0 0.00 0.00 0.00 46 1013.3
20260504193026 55 164 2.0 6.0 0.00 0.00 0.00 43 1013.3
20260504192507 55 146 2.0 6.0 0.00 0.00 0.00 45 1013.3
20260504192009 55 107 3.0 7.0 0.00 0.00 0.00 42 1013.3
20260504191529 55 168 4.0 7.0 0.00 0.00 0.00 41 1013.3
20260504191011 55 201 3.0 7.0 0.00 0.00 0.00 42 1013.3
20260504190504 56 109 1.0 7.0 0.00 0.00 0.00 42 1013.4
20260504190012 56 69 2.0 8.0 0.00 0.00 0.00 39 1013.5
20260504185503 55 68 3.0 8.0 0.00 0.00 0.00 40 1013.5
20260504185004 56 213 1.0 8.0 0.00 0.00 0.00 42 1013.5
20260504184523 54 281 2.0 8.0 0.00 0.00 0.00 41 1013.5
20260504184007 55 244 2.0 7.0 0.00 0.00 0.00 42 1013.6
20260504183509 54 146 3.0 7.0 0.00 0.00 0.00 42 1013.5
20260504183022 54 173 2.0 6.0 0.00 0.00 0.00 45 1013.6
20260504182509 54 204 2.0 7.0 0.00 0.00 0.00 43 1013.6
20260504182011 54 176 0.0 7.0 0.00 0.00 0.00 42 1013.6
20260504181524 54 188 1.0 6.0 0.00 0.00 0.00 44 1013.8
20260504181015 54 180 2.0 4.0 0.00 0.00 0.00 43 1013.8
20260504180511 54 86 1.0 4.0 0.00 0.00 0.00 44 1013.8
20260504180032 53 86 1.0 6.0 0.00 0.00 0.00 44 1013.9
20260504175509 53 115 2.0 6.0 0.00 0.00 0.00 44 1013.9
20260504175007 52 166 3.0 7.0 0.00 0.00 0.00 44 1013.8
20260504174516 53 124 2.0 7.0 0.00 0.00 0.00 45 1013.9
20260504174008 53 155 1.0 5.0 0.00 0.00 0.00 46 1013.9
20260504173507 53 126 1.0 5.0 0.00 0.00 0.00 46 1013.9
20260504173022 52 108 1.0 7.0 0.00 0.00 0.00 47 1014.1
20260504172508 52 109 2.0 7.0 0.00 0.00 0.00 47 1014.1
20260504172006 52 158 2.0 7.0 0.00 0.00 0.00 46 1014.1
20260504171520 51 167 3.0 7.0 0.00 0.00 0.00 47 1014.2
20260504171014 51 112 1.0 4.0 0.00 0.00 0.00 50 1014.3
20260504170509 50 87 2.0 4.0 0.00 0.00 0.00 49 1014.3
20260504151003 48 247 2.0 7.0 0.00 0.00 0.00 52 1015.1
20260504150507 47 254 1.0 4.0 0.00 0.00 0.00 54 1015.2
20260504141010 44 122 2.0 6.0 0.00 0.00 0.00 56 1015.0
20260504140505 44 298 2.0 6.0 0.00 0.00 0.00 57 1014.9
20260504130507 43 123 2.0 4.0 0.00 0.00 0.00 55 1014.0
20260504110508 46 169 0.0 4.0 0.00 0.00 0.00 51 1013.1
20260504100506 48 5 0.0 7.0 0.00 0.00 0.00 50 1012.3
20260504081525 46 257 0.0 5.0 0.00 0.00 0.00 62 1011.1
20260504081007 45 296 0.0 5.0 0.00 0.00 0.00 66 1011.1
20260504080507 43 169 1.0 5.0 0.00 0.00 0.00 70 1011.2
20260504050512 47 344 1.0 2.0 0.00 0.00 0.00 56 1010.6
20260504050016 47 336 0.0 1.0 0.00 0.00 0.00 57 1010.5
20260504045507 48 336 0.0 2.0 0.00 0.00 0.00 55 1010.5
20260504045006 48 336 0.0 2.0 0.00 0.00 0.00 56 1010.5
20260504044521 47 333 0.0 2.0 0.00 0.00 0.00 56 1010.5
20260504044008 48 333 0.0 3.0 0.00 0.00 0.00 59 1010.5
20260504043508 48 350 0.0 3.0 0.00 0.00 0.00 53 1010.5
20260504043007 48 346 1.0 3.0 0.00 0.00 0.00 56 1010.5
20260504042504 48 355 0.0 2.0 0.00 0.00 0.00 56 1010.5
20260504042002 49 355 0.0 2.0 0.00 0.00 0.00 54 1010.5
20260504041510 49 355 0.0 1.0 0.00 0.00 0.00 52 1010.5
20260504041004 49 355 0.0 2.0 0.00 0.00 0.00 52 1010.4
20260504040507 49 355 0.0 2.0 0.00 0.00 0.00 53 1010.4
20260504040014 50 355 0.0 2.0 0.00 0.00 0.00 50 1010.4
20260504035506 50 355 0.0 2.0 0.00 0.00 0.00 52 1010.4
20260504035007 50 355 0.0 1.0 0.00 0.00 0.00 50 1010.4
20260504034536 51 355 0.0 1.0 0.00 0.00 0.00 48 1010.4
20260504034007 51 355 0.0 1.0 0.00 0.00 0.00 48 1010.4
20260504033507 52 355 0.0 2.0 0.00 0.00 0.00 48 1010.3
20260504033029 52 355 1.0 2.0 0.00 0.00 0.00 47 1010.3
20260504032508 53 351 0.0 2.0 0.00 0.00 0.00 46 1010.4
20260504032011 54 351 0.0 2.0 0.00 0.00 0.00 43 1010.2
20260504031508 54 351 0.0 2.0 0.00 0.00 0.00 42 1010.2
20260504031003 55 351 0.0 2.0 0.00 0.00 0.00 42 1010.2
20260504030503 56 350 0.0 1.0 0.00 0.00 0.00 41 1010.1
20260504030014 56 350 0.0 1.0 0.00 0.00 0.00 40 1010.1
20260504025508 57 350 0.0 1.0 0.00 0.00 0.00 38 1010.0
20260504025004 58 350 0.0 2.0 0.00 0.00 0.00 37 1010.0
20260504024518 59 350 0.0 3.0 0.00 0.00 0.00 34 1010.0
20260504024005 60 352 1.0 3.0 0.00 0.00 0.00 32 1009.9
20260504023507 61 336 1.0 3.0 0.00 0.00 0.00 31 1009.9
20260504023024 62 347 0.0 3.0 0.00 0.00 0.00 29 1010.0
20260504022508 62 342 0.0 3.0 0.00 0.00 0.00 28 1009.9
20260504022008 63 298 1.0 3.0 0.00 0.00 0.00 26 1009.9
20260504021525 64 314 0.0 3.0 0.00 0.00 0.00 26 1009.9
20260504021008 65 317 0.0 3.0 0.00 0.00 0.00 26 1009.9
20260504020509 66 241 1.0 3.0 0.00 0.00 0.00 23 1009.9
20260504020008 66 215 1.0 3.0 0.00 0.00 0.00 23 1009.9
20260504015504 66 282 0.0 3.0 0.00 0.00 0.00 23 1009.9
20260504015004 66 240 0.0 8.0 0.00 0.00 0.00 23 1009.9
20260504014519 67 213 2.0 8.0 0.00 0.00 0.00 23 1009.9
20260504014009 67 244 1.0 5.0 0.00 0.00 0.00 22 1010.0
20260504013506 67 360 2.0 7.0 0.00 0.00 0.00 24 1010.0
20260504013019 67 306 2.0 7.0 0.00 0.00 0.00 21 1010.0
20260504012507 67 236 1.0 6.0 0.00 0.00 0.00 22 1010.1
20260504012008 68 217 1.0 6.0 0.00 0.00 0.00 22 1010.1
20260504011523 68 225 2.0 8.0 0.00 0.00 0.00 22 1010.1
20260504011007 68 200 1.0 8.0 0.00 0.00 0.00 21 1010.1
20260504010509 68 249 2.0 6.0 0.00 0.00 0.00 21 1010.2
20260504010028 68 314 2.0 10.0 0.00 0.00 0.00 20 1010.2
20260504005507 68 18 2.0 10.0 0.00 0.00 0.00 22 1010.3
20260504005010 68 229 1.0 5.0 0.00 0.00 0.00 19 1010.3
20260504004510 68 272 1.0 10.0 0.00 0.00 0.00 20 1010.4
20260504004004 69 309 2.0 10.0 0.00 0.00 0.00 19 1010.4
20260504003506 69 198 3.0 8.0 0.00 0.00 0.00 18 1010.5
20260504003018 69 268 3.0 12.0 0.00 0.00 0.00 16 1010.5
20260504002508 69 344 3.0 12.0 0.00 0.00 0.00 16 1010.7
20260504002006 69 293 3.0 9.0 0.00 0.00 0.00 16 1010.8
20260504001522 69 348 3.0 9.0 0.00 0.00 0.00 14 1010.8
20260504001006 69 287 1.0 15.0 0.00 0.00 0.00 15 1010.8
20260504000510 69 335 4.0 15.0 0.00 0.00 0.00 13 1010.8
20260504000026 69 235 2.0 16.0 0.00 0.00 0.00 14 1010.8
20260503235509 69 233 3.0 16.0 0.00 0.00 0.00 13 1010.7
20260503235008 69 329 4.0 10.0 0.00 0.00 0.00 14 1010.8
20260503234528 70 294 3.0 6.0 0.00 0.00 0.00 16 1010.8
20260503234013 70 226 2.0 7.0 0.00 0.00 0.00 17 1010.8
20260503233511 70 297 3.0 8.0 0.00 0.00 0.00 17 1010.7
20260503233016 69 305 3.0 7.0 0.00 0.00 0.00 18 1010.8
20260503232506 68 265 3.0 11.0 0.00 0.00 0.00 20 1010.8
20260503232007 69 222 5.0 11.0 0.00 0.00 0.00 19 1011.0
20260503231520 69 231 4.0 10.0 0.00 0.00 0.00 20 1011.0
20260503231007 69 234 4.0 12.0 0.00 0.00 0.00 23 1010.9
20260503230508 69 205 4.0 12.0 0.00 0.00 0.00 21 1011.1
20260503230025 69 190 3.0 13.0 0.00 0.00 0.00 20 1011.1
20260503225506 69 262 3.0 13.0 0.00 0.00 0.00 19 1011.2
20260503225010 69 343 5.0 13.0 0.00 0.00 0.00 19 1011.3
20260503224525 69 191 2.0 9.0 0.00 0.00 0.00 22 1011.3
20260503224010 69 346 4.0 9.0 0.00 0.00 0.00 19 1011.4
20260503223510 70 78 3.0 9.0 0.00 0.00 0.00 16 1011.6
20260503223027 70 304 4.0 13.0 0.00 0.00 0.00 19 1011.6
20260503222512 70 295 3.0 13.0 0.00 0.00 0.00 17 1011.7
20260503222010 70 230 4.0 11.0 0.00 0.00 0.00 19 1011.8